Truckee-Tahoe, CA

10:30 AM PDT on October 18, 2017 (GMT -0700)
Truckee-Tahoe

Weather History for KTRK - June, 2013

Change the Weather History Date:

Wednesday, June 26, 2013

  Actual Average Record
Temperature  
Mean Temperature 62 °F -  
Max Temperature 73 °F 77 °F 92 °F (1987)
Min Temperature 50 °F 38 °F 1 °F (2005)
Degree Days  
Heating Degree Days 4    
Growing Degree Days 12 (Base 50)    
Moisture  
Dew Point 46 °F    
Average Humidity 64    
Maximum Humidity 87    
Minimum Humidity 38    
Precipitation  
Precipitation 0.00 in - - ()
Sea Level Pressure  
Sea Level Pressure 30.24 in    
Wind  
Wind Speed 10 mph (SSW)    
Max Wind Speed 21 mph    
Max Gust Speed 29 mph    
Visibility 10 miles    
Events      
Averages and records for this station are not official NWS values.
T = Trace of Precipitation, MM = Missing Value Source: NWS Daily Summary

Daily Weather History Graph

Daily Weather History Graph

Search for Another Location

Airport or City:

Trip Planner

Search our weather history database for the weather conditions in past years. The results will help you decide how hot, cold, wet, or windy it might be!

Date:

Astronomy

Jun. 26, 2013 Rise Set
Actual Time 5:35 AM PDT 8:31 PM PDT
Civil Twilight 5:03 AM PDT 9:03 PM PDT
Nautical Twilight 4:22 AM PDT 9:44 PM PDT
Astronomical Twilight 3:35 AM PDT 10:31 PM PDT
Moon 10:59 PM PDT (6/26) 9:31 AM PDT (6/26)
Length of Visible Light 16h 00m
Length of Day
14h 55m
Waning Gibbous, 84% of the Moon is Illuminated
Jun 26
Waning Gibbous
Jun 29
Last Quarter
Jul 8
New
Jul 15
First Quarter
Jul 22
Full

Hourly Weather History & Observations

Time (PDT) Temp. Dew Point Humidity Pressure Visibility Wind Dir Wind Speed Gust Speed Precip Events Conditions
12:15 AM 55.4 °F 48.2 °F 77% 30.17 in 10.0 mi SSW 12.7 mph - N/A   Overcast
12:35 AM 55.4 °F 46.4 °F 72% 30.17 in 10.0 mi SSW 13.8 mph - N/A   Overcast
12:55 AM 55.4 °F 46.4 °F 72% 30.17 in 10.0 mi South 16.1 mph 21.9 mph N/A   Mostly Cloudy
1:15 AM 55.4 °F 46.4 °F 72% 30.17 in 10.0 mi SSW 5.8 mph - N/A   Mostly Cloudy
1:35 AM 55.4 °F 46.4 °F 72% 30.17 in 10.0 mi SSW 8.1 mph - N/A   Mostly Cloudy
1:55 AM 55.4 °F 46.4 °F 72% 30.17 in 10.0 mi South 11.5 mph 19.6 mph N/A   Mostly Cloudy
2:15 AM 55.4 °F 46.4 °F 72% 30.17 in 10.0 mi SSW 10.4 mph 18.4 mph N/A   Mostly Cloudy
2:35 AM 55.4 °F 46.4 °F 72% 30.17 in 10.0 mi SSW 9.2 mph 21.9 mph N/A   Scattered Clouds
2:55 AM 57.2 °F 46.4 °F 67% 30.17 in 10.0 mi SSW 12.7 mph 23.0 mph N/A   Scattered Clouds
3:15 AM 55.4 °F 46.4 °F 72% 30.17 in 10.0 mi SSW 10.4 mph 19.6 mph N/A   Partly Cloudy
3:35 AM 55.4 °F 46.4 °F 72% 30.17 in 10.0 mi SW 8.1 mph - N/A   Scattered Clouds
3:55 AM 55.4 °F 46.4 °F 72% 30.18 in 10.0 mi SSW 13.8 mph 18.4 mph N/A   Scattered Clouds
4:15 AM 55.4 °F 46.4 °F 72% 30.18 in 10.0 mi SW 9.2 mph - N/A   Partly Cloudy
4:35 AM 55.4 °F 46.4 °F 72% 30.18 in 10.0 mi SSW 6.9 mph - N/A   Partly Cloudy
4:55 AM 53.6 °F 46.4 °F 77% 30.19 in 10.0 mi SSW 8.1 mph - N/A   Partly Cloudy
5:15 AM 53.6 °F 46.4 °F 77% 30.19 in 10.0 mi WSW 6.9 mph - N/A   Partly Cloudy
5:35 AM 51.8 °F 44.6 °F 76% 30.20 in 10.0 mi WSW 5.8 mph - N/A   Clear
5:55 AM 50.0 °F 44.6 °F 82% 30.20 in 10.0 mi SW 5.8 mph - N/A   Clear
6:15 AM 51.8 °F 46.4 °F 82% 30.20 in 10.0 mi South 3.5 mph - N/A   Clear
6:35 AM 55.4 °F 46.4 °F 72% 30.20 in 10.0 mi SW 9.2 mph - N/A   Clear
6:45 AM 57.2 °F 46.4 °F 67% 30.20 in 10.0 mi SW 6.9 mph - N/A   Mostly Cloudy
7:50 AM 59.0 °F 48.2 °F 67% 30.22 in 10.0 mi SSW 15.0 mph 21.9 mph N/A   Scattered Clouds
9:55 AM 64.4 °F 50.0 °F 59% 30.23 in 10.0 mi SSW 13.8 mph 28.8 mph N/A   Scattered Clouds
10:55 AM 66.2 °F 48.2 °F 52% 30.24 in 10.0 mi SW 16.1 mph 26.5 mph N/A   Mostly Cloudy
11:55 AM 68.0 °F 48.2 °F 49% 30.25 in 10.0 mi SSW 15.0 mph 27.6 mph N/A   Mostly Cloudy
1:45 PM 71.6 °F 48.2 °F 43% 30.26 in 10.0 mi SW 13.8 mph 23.0 mph N/A   Scattered Clouds
3:45 PM 73.4 °F 46.4 °F 38% 30.27 in 10.0 mi SW 13.8 mph 21.9 mph N/A   Scattered Clouds
3:55 PM 73.4 °F 46.4 °F 38% 30.26 in 10.0 mi SW 20.7 mph 26.5 mph N/A   Scattered Clouds
4:55 PM 73.4 °F 46.4 °F 38% 30.26 in 10.0 mi SW 13.8 mph 24.2 mph N/A   Partly Cloudy
5:45 PM 71.6 °F 46.4 °F 41% 30.26 in 10.0 mi SW 9.2 mph - N/A   Partly Cloudy
5:55 PM 71.6 °F 46.4 °F 41% 30.26 in 10.0 mi SSW 15.0 mph 23.0 mph N/A   Clear
6:15 PM 71.6 °F 46.4 °F 41% 30.26 in 10.0 mi SW 13.8 mph 21.9 mph N/A   Clear
6:35 PM 71.6 °F 46.4 °F 41% 30.27 in 10.0 mi SSW 15.0 mph 20.7 mph N/A   Clear
6:55 PM 69.8 °F 46.4 °F 43% 30.27 in 10.0 mi SSW 12.7 mph - N/A   Clear
7:15 PM 68.0 °F 46.4 °F 46% 30.27 in 10.0 mi SW 11.5 mph - N/A   Clear
7:35 PM 68.0 °F 46.4 °F 46% 30.27 in 10.0 mi SW 10.4 mph - N/A   Clear
7:55 PM 66.2 °F 46.4 °F 49% 30.28 in 10.0 mi SW 5.8 mph - N/A   Clear
8:15 PM 64.4 °F 48.2 °F 56% 30.28 in 10.0 mi SW 5.8 mph - N/A   Clear
8:35 PM 62.6 °F 46.4 °F 55% 30.28 in 10.0 mi West 4.6 mph - N/A   Clear
8:55 PM 62.6 °F 48.2 °F 59% 30.29 in 10.0 mi Calm Calm - N/A   Clear
9:15 PM 59.0 °F 46.4 °F 63% 30.29 in 10.0 mi Calm Calm - N/A   Clear
9:35 PM 57.2 °F 48.2 °F 72% 30.30 in 10.0 mi SSE 4.6 mph - N/A   Clear
9:55 PM 55.4 °F 46.4 °F 72% 30.30 in 10.0 mi Calm Calm - N/A   Clear
10:15 PM 50.0 °F 44.6 °F 82% 30.31 in 10.0 mi Calm Calm - N/A   Clear
10:35 PM 51.8 °F 44.6 °F 76% 30.31 in 10.0 mi Calm Calm - N/A   Clear
10:55 PM 50.0 °F 42.8 °F 76% 30.32 in 10.0 mi SE 3.5 mph - N/A   Clear
11:15 PM 50.0 °F 44.6 °F 82% 30.32 in 10.0 mi South 3.5 mph - N/A   Clear
11:35 PM 50.0 °F 44.6 °F 82% 30.32 in 10.0 mi WSW 4.6 mph - N/A   Clear
11:55 PM 50.0 °F 46.4 °F 87% 30.32 in 10.0 mi SW 3.5 mph - N/A   Clear